ProjectID,Date,Electric Generation,Electric Utility Import,Facility Electric Load
,YYYY-MM-DD,kW,kW,kW
505,2017-06-01,98.25,,98.25
505,2017-06-02,142.08333333333334,,142.08333333333334
505,2017-06-03,142.04166666666666,,142.04166666666666
505,2017-06-04,142.16666666666666,,142.16666666666666
505,2017-06-05,142.375,,142.375
505,2017-06-06,141.29166666666666,,141.29166666666666
505,2017-06-07,119.625,,119.625
505,2017-06-08,116.45833333333333,,116.45833333333333
505,2017-06-09,131.04166666666666,,131.04166666666666
505,2017-06-10,136.70833333333334,,136.70833333333334
505,2017-06-11,124.70833333333333,,124.70833333333333
505,2017-06-12,0.0,,0.0
505,2017-06-13,85.0,,85.0
505,2017-06-14,141.70833333333334,,141.70833333333334
505,2017-06-15,142.0,,142.0
505,2017-06-16,142.0,,142.0
505,2017-06-17,142.04166666666666,,142.04166666666666
505,2017-06-18,141.79166666666666,,141.79166666666666
505,2017-06-19,141.83333333333334,,141.83333333333334
505,2017-06-20,135.875,,135.875
505,2017-06-21,141.91666666666666,,141.91666666666666
505,2017-06-22,141.79166666666666,,141.79166666666666
505,2017-06-23,141.79166666666666,,141.79166666666666
505,2017-06-24,141.75,,141.75
505,2017-06-25,141.91666666666666,,141.91666666666666
505,2017-06-26,141.95833333333334,,141.95833333333334
505,2017-06-27,142.0,,142.0
505,2017-06-28,142.0,,142.0
505,2017-06-29,141.91666666666666,,141.91666666666666
505,2017-06-30,141.70833333333334,,141.70833333333334
505,2017-07-01,141.875,,141.875
505,2017-07-02,141.66666666666666,,141.66666666666666
505,2017-07-03,141.70833333333334,,141.70833333333334
505,2017-07-04,110.66666666666667,,110.66666666666667
505,2017-07-05,113.75,,113.75
505,2017-07-06,141.83333333333334,,141.83333333333334
505,2017-07-07,142.04166666666666,,142.04166666666666
505,2017-07-08,141.75,,141.75
505,2017-07-09,141.79166666666666,,141.79166666666666
505,2017-07-10,141.75,,141.75
505,2017-07-11,141.83333333333334,,141.83333333333334
505,2017-07-12,141.79166666666666,,141.79166666666666
505,2017-07-13,141.83333333333334,,141.83333333333334
505,2017-07-14,140.5,,140.5
505,2017-07-15,141.875,,141.875
505,2017-07-16,141.75,,141.75
505,2017-07-17,127.33333333333333,,127.33333333333333
505,2017-07-18,140.16666666666666,,140.16666666666666
505,2017-07-19,141.58333333333334,,141.58333333333334
505,2017-07-20,141.5,,141.5
505,2017-07-21,141.5,,141.5
505,2017-07-22,141.54166666666666,,141.54166666666666
505,2017-07-23,141.625,,141.625
505,2017-07-24,142.04166666666666,,142.04166666666666
505,2017-07-25,142.375,,142.375
505,2017-07-26,142.0,,142.0
505,2017-07-27,121.5,,121.5
505,2017-07-28,141.83333333333334,,141.83333333333334
505,2017-07-29,142.08333333333334,,142.08333333333334
505,2017-07-30,141.95833333333334,,141.95833333333334
505,2017-07-31,141.83333333333334,,141.83333333333334
505,2017-08-01,141.79166666666666,,141.79166666666666
505,2017-08-02,142.0,,142.0
505,2017-08-03,141.875,,141.875
505,2017-08-04,141.875,,141.875
505,2017-08-05,142.04166666666666,,142.04166666666666
505,2017-08-06,142.08333333333334,,142.08333333333334
505,2017-08-07,142.125,,142.125
505,2017-08-08,142.08333333333334,,142.08333333333334
505,2017-08-09,141.95833333333334,,141.95833333333334
505,2017-08-10,141.83333333333334,,141.83333333333334
505,2017-08-11,141.95833333333334,,141.95833333333334
505,2017-08-12,142.04166666666666,,142.04166666666666
505,2017-08-13,27.458333333333332,,27.458333333333332
505,2017-08-14,0.0,,0.0
505,2017-08-15,0.0,,0.0
505,2017-08-16,0.0,,0.0
505,2017-08-17,0.0,,0.0
505,2017-08-18,0.0,,0.0
505,2017-08-19,0.0,,0.0
505,2017-08-20,0.0,,0.0
505,2017-08-21,0.0,,0.0
505,2017-08-22,0.0,,0.0
505,2017-08-23,0.0,,0.0
505,2017-08-24,2.5416666666666665,,2.5416666666666665
505,2017-08-25,5.125,,5.125
505,2017-08-26,0.0,,0.0
505,2017-08-27,0.0,,0.0
505,2017-08-28,0.0,,0.0
505,2017-08-29,4.25,,4.25
505,2017-08-30,0.0,,0.0
505,2017-08-31,0.0,,0.0
505,2017-09-01,0.0,,0.0
505,2017-09-02,0.0,,0.0
505,2017-09-03,0.0,,0.0
505,2017-09-04,0.0,,0.0
505,2017-09-05,0.0,,0.0
505,2017-09-06,0.0,,0.0
505,2017-09-07,0.0,,0.0
505,2017-09-08,0.0,,0.0
505,2017-09-09,0.0,,0.0
505,2017-09-10,0.0,,0.0
505,2017-09-11,0.0,,0.0
505,2017-09-12,0.0,,0.0
505,2017-09-13,0.0,,0.0
505,2017-09-14,0.0,,0.0
505,2017-09-15,0.0,,0.0
505,2017-09-16,0.0,,0.0
505,2017-09-17,0.0,,0.0
505,2017-09-18,0.0,,0.0
505,2017-09-19,0.0,,0.0
505,2017-09-20,91.75,,91.75
505,2017-09-21,142.20833333333334,,142.20833333333334
505,2017-09-22,74.375,,74.375
505,2017-09-23,0.0,,0.0
505,2017-09-24,0.0,,0.0
505,2017-09-25,27.25,,27.25
505,2017-09-26,53.458333333333336,,53.458333333333336
505,2017-09-27,56.875,,56.875
505,2017-09-28,0.0,,0.0
505,2017-09-29,0.0,,0.0
505,2017-09-30,0.0,,0.0
505,2017-10-01,0.0,,0.0
505,2017-10-02,0.0,,0.0
505,2017-10-03,0.0,,0.0
505,2017-10-04,0.0,,0.0
505,2017-10-05,0.0,,0.0
505,2017-10-06,0.0,,0.0
505,2017-10-07,0.0,,0.0
505,2017-10-08,0.0,,0.0
505,2017-10-09,0.0,,0.0
505,2017-10-10,0.0,,0.0
505,2017-10-11,0.0,,0.0
505,2017-10-12,0.0,,0.0
505,2017-10-13,0.0,,0.0
505,2017-10-14,0.0,,0.0
505,2017-10-15,0.0,,0.0
505,2017-10-16,0.0,,0.0
505,2017-10-17,0.0,,0.0
505,2017-10-18,0.0,,0.0
505,2017-10-19,0.0,,0.0
505,2017-10-20,0.0,,0.0
505,2017-10-21,0.0,,0.0
505,2017-10-22,0.0,,0.0
505,2017-10-23,0.0,,0.0
505,2017-10-24,0.0,,0.0
505,2017-10-25,0.0,,0.0
505,2017-10-26,0.0,,0.0
505,2017-10-27,0.0,,0.0
505,2017-10-28,0.0,,0.0
505,2017-10-29,0.0,,0.0
505,2017-10-30,0.0,,0.0
505,2017-10-31,4.958333333333333,,4.958333333333333
505,2017-11-01,0.0,,0.0
505,2017-11-02,0.0,,0.0
505,2017-11-03,0.0,,0.0
505,2017-11-04,0.0,,0.0
505,2017-11-05,0.0,,0.0
505,2017-11-06,0.0,,0.0
505,2017-11-07,0.0,,0.0
505,2017-11-08,0.0,,0.0
505,2017-11-09,0.0,,0.0
505,2017-11-10,0.0,,0.0
505,2017-11-11,0.0,,0.0
505,2017-11-12,0.0,,0.0
505,2017-11-13,0.0,,0.0
505,2017-11-14,0.0,,0.0
505,2017-11-15,0.0,,0.0
505,2017-11-16,0.0,,0.0
505,2017-11-17,0.0,,0.0
505,2017-11-18,0.0,,0.0
505,2017-11-19,0.0,,0.0
505,2017-11-20,0.0,,0.0
505,2017-11-21,0.0,,0.0
505,2017-11-22,0.0,,0.0
505,2017-11-23,0.0,,0.0
505,2017-11-24,0.0,,0.0
505,2017-11-25,0.0,,0.0
505,2017-11-26,0.0,,0.0
505,2017-11-27,0.0,,0.0
505,2017-11-28,0.0,,0.0
505,2017-11-29,0.0,,0.0
505,2017-11-30,0.0,,0.0
505,2017-12-01,0.0,,0.0
505,2017-12-02,0.0,,0.0
505,2017-12-03,0.0,,0.0
505,2017-12-04,0.0,,0.0
505,2017-12-05,0.0,,0.0
505,2017-12-06,0.0,,0.0
505,2017-12-07,0.0,,0.0
505,2017-12-08,0.0,,0.0
505,2017-12-09,0.0,,0.0
505,2017-12-10,0.0,,0.0
505,2017-12-11,0.0,,0.0
505,2017-12-12,0.0,,0.0
505,2017-12-13,0.0,,0.0
505,2017-12-14,18.583333333333332,,18.583333333333332
505,2017-12-15,52.625,,52.625
505,2017-12-16,52.333333333333336,,52.333333333333336
505,2017-12-17,52.041666666666664,,52.041666666666664
505,2017-12-18,52.416666666666664,,52.416666666666664
505,2017-12-19,51.791666666666664,,51.791666666666664
505,2017-12-20,51.833333333333336,,51.833333333333336
505,2017-12-21,52.333333333333336,,52.333333333333336
505,2017-12-22,52.083333333333336,,52.083333333333336
505,2017-12-23,47.541666666666664,,47.541666666666664
505,2017-12-24,45.541666666666664,,45.541666666666664
505,2017-12-25,48.375,,48.375
505,2017-12-26,52.208333333333336,,52.208333333333336
505,2017-12-27,52.708333333333336,,52.708333333333336
505,2017-12-28,52.791666666666664,,52.791666666666664
505,2017-12-29,52.666666666666664,,52.666666666666664
505,2017-12-30,52.458333333333336,,52.458333333333336
505,2017-12-31,52.583333333333336,,52.583333333333336
505,2018-01-01,52.625,,52.625
505,2018-01-02,52.708333333333336,,52.708333333333336
505,2018-01-03,52.75,,52.75
505,2018-01-04,52.583333333333336,,52.583333333333336
505,2018-01-05,51.708333333333336,,51.708333333333336
505,2018-01-06,52.0,,52.0
505,2018-01-07,52.541666666666664,,52.541666666666664
505,2018-01-08,52.583333333333336,,52.583333333333336
505,2018-01-09,51.833333333333336,,51.833333333333336
505,2018-01-10,52.333333333333336,,52.333333333333336
505,2018-01-11,52.041666666666664,,52.041666666666664
505,2018-01-12,38.333333333333336,,38.333333333333336
505,2018-01-13,0.0,,0.0
505,2018-01-14,0.0,,0.0
505,2018-01-15,0.0,,0.0
505,2018-01-16,0.0,,0.0
505,2018-01-17,4.125,,4.125
505,2018-01-18,52.583333333333336,,52.583333333333336
505,2018-01-19,52.541666666666664,,52.541666666666664
505,2018-01-20,51.833333333333336,,51.833333333333336
505,2018-01-21,0.0,,0.0
505,2018-01-22,0.0,,0.0
505,2018-01-23,0.0,,0.0
505,2018-01-24,0.0,,0.0
505,2018-01-25,0.0,,0.0
505,2018-01-26,0.0,,0.0
505,2018-01-27,0.0,,0.0
505,2018-01-28,0.0,,0.0
505,2018-01-29,0.0,,0.0
505,2018-01-30,0.0,,0.0
505,2018-01-31,1.7083333333333333,,1.7083333333333333
505,2018-02-01,52.333333333333336,,52.333333333333336
505,2018-02-02,52.458333333333336,,52.458333333333336
505,2018-02-03,52.458333333333336,,52.458333333333336
505,2018-02-04,52.375,,52.375
505,2018-02-05,52.083333333333336,,52.083333333333336
505,2018-02-06,52.416666666666664,,52.416666666666664
505,2018-02-07,52.5,,52.5
505,2018-02-08,52.458333333333336,,52.458333333333336
505,2018-02-09,52.583333333333336,,52.583333333333336
505,2018-02-10,52.416666666666664,,52.416666666666664
505,2018-02-11,52.0,,52.0
505,2018-02-12,22.666666666666668,,22.666666666666668
505,2018-02-13,39.291666666666664,,39.291666666666664
505,2018-02-14,52.583333333333336,,52.583333333333336
505,2018-02-15,51.958333333333336,,51.958333333333336
505,2018-02-16,51.875,,51.875
505,2018-02-17,52.333333333333336,,52.333333333333336
505,2018-02-18,52.208333333333336,,52.208333333333336
505,2018-02-19,52.333333333333336,,52.333333333333336
505,2018-02-20,51.833333333333336,,51.833333333333336
505,2018-02-21,36.583333333333336,,36.583333333333336
505,2018-02-22,52.166666666666664,,52.166666666666664
505,2018-02-23,52.583333333333336,,52.583333333333336
505,2018-02-24,51.791666666666664,,51.791666666666664
505,2018-02-25,52.083333333333336,,52.083333333333336
505,2018-02-26,51.791666666666664,,51.791666666666664
505,2018-02-27,52.041666666666664,,52.041666666666664
505,2018-02-28,52.0,,52.0
505,2018-03-01,51.875,,51.875
505,2018-03-02,45.041666666666664,,45.041666666666664
505,2018-03-03,0.0,,0.0
505,2018-03-04,0.0,,0.0
505,2018-03-05,34.666666666666664,,34.666666666666664
505,2018-03-06,52.333333333333336,,52.333333333333336
505,2018-03-07,25.25,,25.25
505,2018-03-08,8.208333333333334,,8.208333333333334
505,2018-03-09,10.458333333333334,,10.458333333333334
505,2018-03-10,52.291666666666664,,52.291666666666664
505,2018-03-11,52.25,,52.25
505,2018-03-12,52.708333333333336,,52.708333333333336
505,2018-03-13,52.791666666666664,,52.791666666666664
505,2018-03-14,52.541666666666664,,52.541666666666664
505,2018-03-15,52.291666666666664,,52.291666666666664
505,2018-03-16,52.541666666666664,,52.541666666666664
505,2018-03-17,52.208333333333336,,52.208333333333336
505,2018-03-18,52.291666666666664,,52.291666666666664
505,2018-03-19,52.416666666666664,,52.416666666666664
505,2018-03-20,52.75,,52.75
505,2018-03-21,52.75,,52.75
505,2018-03-22,52.458333333333336,,52.458333333333336
505,2018-03-23,52.166666666666664,,52.166666666666664
505,2018-03-24,52.0,,52.0
505,2018-03-25,52.291666666666664,,52.291666666666664
505,2018-03-26,52.541666666666664,,52.541666666666664
505,2018-03-27,52.541666666666664,,52.541666666666664
505,2018-03-28,52.166666666666664,,52.166666666666664
505,2018-03-29,51.875,,51.875
505,2018-03-30,51.875,,51.875
505,2018-03-31,51.875,,51.875
505,2018-04-01,51.583333333333336,,51.583333333333336
505,2018-04-02,36.75,,36.75
505,2018-04-03,0.0,,0.0
505,2018-04-04,5.541666666666667,,5.541666666666667
505,2018-04-05,18.958333333333332,,18.958333333333332
505,2018-04-06,0.0,,0.0
505,2018-04-07,0.0,,0.0
505,2018-04-08,0.0,,0.0
505,2018-04-09,52.416666666666664,,52.416666666666664
505,2018-04-10,52.291666666666664,,52.291666666666664
505,2018-04-11,52.208333333333336,,52.208333333333336
505,2018-04-12,51.875,,51.875
505,2018-04-13,42.916666666666664,,42.916666666666664
505,2018-04-14,0.0,,0.0
505,2018-04-15,0.0,,0.0
505,2018-04-16,15.125,,15.125
505,2018-04-17,0.0,,0.0
505,2018-04-18,0.0,,0.0
505,2018-04-19,15.0,,15.0
505,2018-04-20,52.125,,52.125
505,2018-04-21,46.958333333333336,,46.958333333333336
505,2018-04-22,50.375,,50.375
505,2018-04-23,51.875,,51.875
505,2018-04-24,0.0,,0.0
505,2018-04-25,0.0,,0.0
505,2018-04-26,0.0,,0.0
505,2018-04-27,51.291666666666664,,51.291666666666664
505,2018-04-28,0.0,,0.0
505,2018-04-29,0.0,,0.0
505,2018-04-30,61.208333333333336,,61.208333333333336
505,2018-05-01,71.25,,71.25
505,2018-05-02,38.5,,38.5
505,2018-05-03,28.291666666666668,,28.291666666666668
505,2018-05-04,20.75,,20.75
505,2018-05-05,37.333333333333336,,37.333333333333336
505,2018-05-06,0.0,,0.0
505,2018-05-07,29.583333333333332,,29.583333333333332
505,2018-05-08,51.458333333333336,,51.458333333333336
505,2018-05-09,51.833333333333336,,51.833333333333336
505,2018-05-10,51.375,,51.375
505,2018-05-11,51.375,,51.375
505,2018-05-12,51.291666666666664,,51.291666666666664
505,2018-05-13,51.375,,51.375
505,2018-05-14,51.375,,51.375
505,2018-05-15,51.5,,51.5
505,2018-05-16,51.375,,51.375
505,2018-05-17,51.583333333333336,,51.583333333333336
505,2018-05-18,51.375,,51.375
505,2018-05-19,51.375,,51.375
505,2018-05-20,0.0,,0.0
505,2018-05-21,6.791666666666667,,6.791666666666667
505,2018-05-22,51.25,,51.25
505,2018-05-23,51.041666666666664,,51.041666666666664
505,2018-05-24,51.333333333333336,,51.333333333333336
505,2018-05-25,51.375,,51.375
505,2018-05-26,51.041666666666664,,51.041666666666664
505,2018-05-27,50.916666666666664,,50.916666666666664
505,2018-05-28,51.708333333333336,,51.708333333333336
505,2018-05-29,51.0,,51.0
505,2018-05-30,51.0,,51.0
505,2018-05-31,51.625,,51.625
505,2018-06-01,48.041666666666664,,48.041666666666664
505,2018-06-02,51.083333333333336,,51.083333333333336
505,2018-06-03,50.958333333333336,,50.958333333333336
505,2018-06-04,51.708333333333336,,51.708333333333336
505,2018-06-05,50.958333333333336,,50.958333333333336
505,2018-06-06,51.833333333333336,,51.833333333333336
505,2018-06-07,51.125,,51.125
505,2018-06-08,51.208333333333336,,51.208333333333336
505,2018-06-09,51.0,,51.0
505,2018-06-10,51.583333333333336,,51.583333333333336
505,2018-06-11,50.916666666666664,,50.916666666666664
505,2018-06-12,51.416666666666664,,51.416666666666664
505,2018-06-13,50.958333333333336,,50.958333333333336
505,2018-06-14,28.375,,28.375
505,2018-06-15,47.541666666666664,,47.541666666666664
505,2018-06-16,0.0,,0.0
505,2018-06-17,0.0,,0.0
505,2018-06-18,30.083333333333332,,30.083333333333332
505,2018-06-19,49.458333333333336,,49.458333333333336
505,2018-06-20,50.375,,50.375
505,2018-06-21,0.0,,0.0
505,2018-06-22,36.708333333333336,,36.708333333333336
505,2018-06-23,49.208333333333336,,49.208333333333336
505,2018-06-24,49.291666666666664,,49.291666666666664
505,2018-06-25,51.208333333333336,,51.208333333333336
505,2018-06-26,0.0,,0.0
505,2018-06-27,0.0,,0.0
505,2018-06-28,0.0,,0.0
505,2018-06-29,0.0,,0.0
505,2018-06-30,0.0,,0.0
505,2018-07-01,0.0,,0.0
505,2018-07-02,16.708333333333332,,16.708333333333332
505,2018-07-03,31.958333333333332,,31.958333333333332
505,2018-07-04,0.0,,0.0
505,2018-07-05,12.208333333333334,,12.208333333333334
505,2018-07-06,51.125,,51.125
505,2018-07-07,50.666666666666664,,50.666666666666664
505,2018-07-08,50.083333333333336,,50.083333333333336
505,2018-07-09,34.958333333333336,,34.958333333333336
505,2018-07-10,0.0,,0.0
505,2018-07-11,0.0,,0.0
505,2018-07-12,33.708333333333336,,33.708333333333336
505,2018-07-13,40.666666666666664,,40.666666666666664
505,2018-07-14,0.0,,0.0
505,2018-07-15,0.0,,0.0
505,2018-07-16,0.0,,0.0
505,2018-07-17,21.541666666666668,,21.541666666666668
505,2018-07-18,50.958333333333336,,50.958333333333336
505,2018-07-19,46.166666666666664,,46.166666666666664
505,2018-07-20,50.75,,50.75
505,2018-07-21,47.291666666666664,,47.291666666666664
505,2018-07-22,45.708333333333336,,45.708333333333336
505,2018-07-23,51.458333333333336,,51.458333333333336
505,2018-07-24,50.916666666666664,,50.916666666666664
505,2018-07-25,50.875,,50.875
505,2018-07-26,50.958333333333336,,50.958333333333336
505,2018-07-27,50.916666666666664,,50.916666666666664
505,2018-07-28,50.291666666666664,,50.291666666666664
505,2018-07-29,50.083333333333336,,50.083333333333336
505,2018-07-30,50.916666666666664,,50.916666666666664
505,2018-07-31,50.583333333333336,,50.583333333333336
505,2018-08-01,50.916666666666664,,50.916666666666664
505,2018-08-02,50.75,,50.75
505,2018-08-03,50.958333333333336,,50.958333333333336
505,2018-08-04,51.0,,51.0
505,2018-08-05,46.458333333333336,,46.458333333333336
505,2018-08-06,51.041666666666664,,51.041666666666664
505,2018-08-07,50.791666666666664,,50.791666666666664
505,2018-08-08,50.916666666666664,,50.916666666666664
505,2018-08-09,39.083333333333336,,39.083333333333336
505,2018-08-10,50.791666666666664,,50.791666666666664
505,2018-08-11,50.791666666666664,,50.791666666666664
505,2018-08-12,50.791666666666664,,50.791666666666664
505,2018-08-13,50.833333333333336,,50.833333333333336
505,2018-08-14,50.791666666666664,,50.791666666666664
505,2018-08-15,50.791666666666664,,50.791666666666664
505,2018-08-16,50.791666666666664,,50.791666666666664
505,2018-08-17,50.75,,50.75
505,2018-08-18,50.875,,50.875
505,2018-08-19,50.791666666666664,,50.791666666666664
505,2018-08-20,50.75,,50.75
505,2018-08-21,50.416666666666664,,50.416666666666664
505,2018-08-22,51.0,,51.0
505,2018-08-23,50.75,,50.75
505,2018-08-24,50.75,,50.75
505,2018-08-25,50.708333333333336,,50.708333333333336
505,2018-08-26,49.833333333333336,,49.833333333333336
505,2018-08-27,50.791666666666664,,50.791666666666664
505,2018-08-28,50.791666666666664,,50.791666666666664
505,2018-08-29,50.791666666666664,,50.791666666666664
505,2018-08-30,50.791666666666664,,50.791666666666664
505,2018-08-31,50.833333333333336,,50.833333333333336
505,2018-09-01,50.791666666666664,,50.791666666666664
505,2018-09-02,51.166666666666664,,51.166666666666664
505,2018-09-03,50.791666666666664,,50.791666666666664
505,2018-09-04,50.75,,50.75
505,2018-09-05,50.791666666666664,,50.791666666666664
505,2018-09-06,50.791666666666664,,50.791666666666664
505,2018-09-07,50.833333333333336,,50.833333333333336
505,2018-09-08,0.0,,0.0
505,2018-09-09,0.0,,0.0
505,2018-09-10,0.0,,0.0
505,2018-09-11,36.666666666666664,,36.666666666666664
505,2018-09-12,51.333333333333336,,51.333333333333336
505,2018-09-13,51.208333333333336,,51.208333333333336
505,2018-09-14,51.041666666666664,,51.041666666666664
505,2018-09-15,50.958333333333336,,50.958333333333336
505,2018-09-16,51.458333333333336,,51.458333333333336
505,2018-09-17,51.041666666666664,,51.041666666666664
505,2018-09-18,51.0,,51.0
505,2018-09-19,50.958333333333336,,50.958333333333336
505,2018-09-20,51.458333333333336,,51.458333333333336
505,2018-09-21,51.0,,51.0
505,2018-09-22,51.0,,51.0
505,2018-09-23,51.333333333333336,,51.333333333333336
505,2018-09-24,51.25,,51.25
505,2018-09-25,51.041666666666664,,51.041666666666664
505,2018-09-26,51.5,,51.5
505,2018-09-27,51.041666666666664,,51.041666666666664
505,2018-09-28,51.333333333333336,,51.333333333333336
505,2018-09-29,51.25,,51.25
505,2018-09-30,51.125,,51.125
505,2018-10-01,51.416666666666664,,51.416666666666664
505,2018-10-02,51.041666666666664,,51.041666666666664
505,2018-10-03,51.0,,51.0
505,2018-10-04,51.416666666666664,,51.416666666666664
505,2018-10-05,25.25,,25.25
505,2018-10-06,51.125,,51.125
505,2018-10-07,0.0,,0.0
505,2018-10-08,0.0,,0.0
505,2018-10-09,42.708333333333336,,42.708333333333336
505,2018-10-10,51.041666666666664,,51.041666666666664
505,2018-10-11,50.75,,50.75
505,2018-10-12,51.416666666666664,,51.416666666666664
505,2018-10-13,52.208333333333336,,52.208333333333336
505,2018-10-14,47.041666666666664,,47.041666666666664
505,2018-10-15,51.791666666666664,,51.791666666666664
505,2018-10-16,52.083333333333336,,52.083333333333336
505,2018-10-17,51.75,,51.75
505,2018-10-18,52.625,,52.625
505,2018-10-19,52.541666666666664,,52.541666666666664
505,2018-10-20,50.416666666666664,,50.416666666666664
505,2018-10-21,50.25,,50.25
505,2018-10-22,52.875,,52.875
505,2018-10-23,51.875,,51.875
505,2018-10-24,52.625,,52.625
505,2018-10-25,52.875,,52.875
505,2018-10-26,52.875,,52.875
505,2018-10-27,47.291666666666664,,47.291666666666664
505,2018-10-28,43.416666666666664,,43.416666666666664
505,2018-10-29,52.5,,52.5
505,2018-10-30,52.5,,52.5
505,2018-10-31,52.416666666666664,,52.416666666666664
505,2018-11-01,52.0,,52.0
505,2018-11-02,50.75,,50.75
505,2018-11-03,49.541666666666664,,49.541666666666664
505,2018-11-04,47.875,,47.875
505,2018-11-05,51.958333333333336,,51.958333333333336
505,2018-11-06,51.541666666666664,,51.541666666666664
505,2018-11-07,0.0,,0.0
505,2018-11-08,0.0,,0.0
505,2018-11-09,12.791666666666666,,12.791666666666666
505,2018-11-10,45.541666666666664,,45.541666666666664
505,2018-11-11,0.0,,0.0
505,2018-11-12,0.0,,0.0
505,2018-11-13,0.7083333333333334,,0.7083333333333334
505,2018-11-14,51.458333333333336,,51.458333333333336
505,2018-11-15,52.083333333333336,,52.083333333333336
505,2018-11-16,52.541666666666664,,52.541666666666664
505,2018-11-17,51.791666666666664,,51.791666666666664
505,2018-11-18,49.166666666666664,,49.166666666666664
505,2018-11-19,52.083333333333336,,52.083333333333336
505,2018-11-20,51.875,,51.875
505,2018-11-21,52.625,,52.625
505,2018-11-22,52.916666666666664,,52.916666666666664
505,2018-11-23,52.791666666666664,,52.791666666666664
505,2018-11-24,50.666666666666664,,50.666666666666664
505,2018-11-25,0.0,,0.0
505,2018-11-26,0.0,,0.0
505,2018-11-27,0.0,,0.0
505,2018-11-28,52.416666666666664,,52.416666666666664
505,2018-11-29,52.291666666666664,,52.291666666666664
505,2018-11-30,52.625,,52.625
505,2018-12-01,52.916666666666664,,52.916666666666664
505,2018-12-02,52.375,,52.375
505,2018-12-03,51.958333333333336,,51.958333333333336
505,2018-12-04,52.583333333333336,,52.583333333333336
505,2018-12-05,52.25,,52.25
505,2018-12-06,52.5,,52.5
505,2018-12-07,52.625,,52.625
505,2018-12-08,0.0,,0.0
505,2018-12-09,0.0,,0.0
505,2018-12-10,0.0,,0.0
505,2018-12-11,21.625,,21.625
505,2018-12-12,52.833333333333336,,52.833333333333336
505,2018-12-13,52.75,,52.75
505,2018-12-14,52.541666666666664,,52.541666666666664
505,2018-12-15,51.416666666666664,,51.416666666666664
505,2018-12-16,0.0,,0.0
505,2018-12-17,18.458333333333332,,18.458333333333332
505,2018-12-18,52.625,,52.625
505,2018-12-19,52.75,,52.75
505,2018-12-20,52.708333333333336,,52.708333333333336
505,2018-12-21,50.958333333333336,,50.958333333333336
505,2018-12-22,0.0,,0.0
505,2018-12-23,0.0,,0.0
505,2018-12-24,0.0,,0.0
505,2018-12-25,0.0,,0.0
505,2018-12-26,0.0,,0.0
505,2018-12-27,0.0,,0.0
505,2018-12-28,0.0,,0.0
505,2018-12-29,0.0,,0.0
505,2018-12-30,0.0,,0.0
505,2018-12-31,0.0,,0.0
505,2019-01-01,0.0,,0.0
505,2019-01-02,0.0,,0.0
505,2019-01-03,34.541666666666664,,34.541666666666664
505,2019-01-04,52.625,,52.625
505,2019-01-05,51.583333333333336,,51.583333333333336
505,2019-01-06,0.0,,0.0
505,2019-01-07,35.041666666666664,,35.041666666666664
505,2019-01-08,51.791666666666664,,51.791666666666664
505,2019-01-09,51.625,,51.625
505,2019-01-10,52.541666666666664,,52.541666666666664
505,2019-01-11,52.833333333333336,,52.833333333333336
505,2019-01-12,0.0,,0.0
505,2019-01-13,0.0,,0.0
505,2019-01-14,0.0,,0.0
505,2019-01-15,0.0,,0.0
505,2019-01-16,0.0,,0.0
505,2019-01-17,0.0,,0.0
505,2019-01-18,0.0,,0.0
505,2019-01-19,0.0,,0.0
505,2019-01-20,0.0,,0.0
505,2019-01-21,0.0,,0.0
505,2019-01-22,0.0,,0.0
505,2019-01-23,37.458333333333336,,37.458333333333336